Погода в Светлом

Россия / Архангельская область     64°02′31″N   42°41′50″E
темп.,
°C
ветер,
м/с
пор.,
м/с
влажн.,
%
обл.,
%
осадки,
мм/ч
давл.,
гПа
погр.,
м
16 апреля, пт
пт1600:00−1юз25815 0.0 103087
03:00−1юз397855 0.0 1031213
06:00−1юз39805 0.0 1031258
09:00+4з486757 0.0 1031536
12:00+8зсз585874 0.0 10311516
15:00+8сз58566 0.1 10321541
18:00+6сз36718 0.0 1032430
21:00+1зсз27935 0.0 1033149
17 апреля, сб
сб1700:00−1зсз25955 0.0 1033111
03:00−1з2795100 0.0 1033154
06:00+1з31183100 0.0 1032341
09:00+6зсз5116897 0.0 1031653
12:00+8зсз5858100 0.0 10311047
15:00+9сз57579 0.0 10311133
18:00+7зсз49675 0.0 1030642
21:00+3сз39865 0.0 1031249
18 апреля, вс
вс1800:00+2с269492 0.0 1033161
03:00+1св368262 0.0 1034479
06:000всв25865 0.0 1036345
09:00+2в23585 0.0 1037838
12:00+5в22410 0.0 10371157
15:00+6в22361 0.0 10371325
18:00+6в22400 0.0 10361117
21:00+2вюв22575 0.0 103721
19 апреля, пн
пн1900:000юв22635 0.0 103720
03:000ю22655 0.0 103825
06:00+1ю14655 0.0 1038131
09:00+5юз344888 0.0 1038642
12:00+8юз343963 0.0 10371118
15:00+9юз333764 0.0 10361176
18:00+8ююз244428 0.0 1035284
21:00+3ююз23615 0.0 103555
20 апреля, вт
вт2000:00+2ююз24665 0.0 103569
03:000ююз22690 0.0 103438
06:00+1ю25663 0.0 1034151
09:00+6ююз24455 0.0 1033560
12:00+9ю34340 0.0 10321245
15:00+11ю35300 0.0 10301448
18:00+10ююв35380 0.0 1028891
21:00+5юв27570 0.0 1028117